Regional Weather Roundup
Issued by NWS Kansas City/Pleasant Hill, MO

Home | Current Version | Previous Version | Text Only | Print | Product List | Glossary On
Versions: 1 2 3 4 5 6 7 8 9 10 11 12 13 14 15 16 17 18 19 20 21 22 23 24 25 26 27 28 29 30 31 32 33 34 35 36 37 38 39 40 41 42 43 44 45 46 47 48 49 50
810
ASUS43 KEAX 180410
RWREAX

WEATHER ROUNDUP FOR EASTERN KANSAS AND NORTHWEST MISSOURI
NATIONAL WEATHER SERVICE KANSAS CITY/PLEASANT HILL MO
1000 PM CST SAT FEB 17 2018

KSZ040-057-103>105-MOZ028-029-037-043-180500-
...KANSAS CITY METROPOLITAN AREA...

CITY           SKY/WX    TMP DP  RH WIND       PRES   REMARKS
K.C. INTL      CLEAR     33  20  58 NE8       30.17S WCI  26
K.C. DOWNTOWN  CLEAR     35  23  61 NW3       30.18R
LEES SUMMIT    CLEAR     41  19  41 S8        30.19R
OLATHE - IXD   CLEAR     32  20  61 S8        30.19R WCI  25
OLATHE - OJC   CLEAR     33  21  61 S5        30.18R WCI  29
LAWRENCE       CLEAR     26  20  77 E3        30.18R

$$

MOZ001>008-011>017-020>025-030>033-038>040-044>046-053-054-180500-
...NORTHERN AND CENTRAL MISSOURI...

CITY           SKY/WX    TMP DP  RH WIND       PRES   REMARKS
ST. JOSEPH     CLEAR     29  22  75 CALM      30.18F
MOSBY          CLEAR     27  19  74 CALM      30.19S
WARRENSBURG    CLEAR     34  21  60 S5        30.20R WCI  30
WHITEMAN AFB   CLEAR     28  20  71 CALM      30.15S
CLINTON        CLEAR     28  23  80 MISG      30.22R
SEDALIA        CLEAR     39  24  55 SE3       30.21R
WARSAW         NOT AVBL
CHILLICOTHE      N/A     26  18  71 CALM      30.21R
KIRKSVILLE     CLEAR     26  22  84 CALM      30.19R

$$

MOZ041-047>049-056>058-063>065-088>090-097-180500-
...EASTERN AND SOUTHERN MISSOURI...

CITY           SKY/WX    TMP DP  RH WIND       PRES   REMARKS
ST. LOUIS INTL CLEAR     32  31  96 CALM      30.23R
SPIRIT OF STL  CLEAR     27  27 100 CALM      30.22S
COLUMBIA       CLEAR     39  22  50 N5        30.20S
JEFFERSON CITY CLEAR     30  26  85 CALM      30.22S
ROLLA          CLEAR     32  27  81 CALM      30.22R
OSAGE BEACH    CLEAR     30  29  96 CALM      30.23R
SPRINGFIELD    CLEAR     32  31  96 S3        30.21R FOG
JOPLIN         CLEAR     40  36  86 S5        30.22R
WEST PLAINS    CLEAR     33  31  92 CALM      30.24R

$$

IAZ060-094-KSZ022-034>040-054-083-096-NEZ052-066-093-180500-
...KANSAS...SOUTHEAST NEBRASKA AND IOWA...

CITY           SKY/WX    TMP DP  RH WIND       PRES   REMARKS
TOPEKA         CLEAR     30  19  63 CALM      30.17R
MANHATTAN      CLEAR     29  16  58 CALM      30.14S
EMPORIA        CLEAR     34  13  41 S10       30.16F WCI  26
CHANUTE        CLEAR     41  20  43 E6        30.19S
WICHITA        CLEAR     36  13  38 SE5       30.16S WCI  32
OMAHA          CLEAR     28  22  78 CALM      30.13F
LINCOLN        CLEAR     26  20  77 CALM      30.12F
FALLS CITY     CLEAR     33  20  58 SE5       30.16S WCI  29
LAMONI         CLEAR     32  23  69 NW5       30.16S WCI  27
DES MOINES     CLEAR     31  25  78 SW5       30.16S WCI  26

$$





USA.gov is the U.S. government's official web portal to all federal, state and local government web resources and services.